Content
SEND FEEDBACK

Daily
Averages
Monthly
Summary
United States of America

ST. LOUIS, MISSOURI


Home > North America > United States > Missouri
Elevation: 535 feet     Latitude: 38 45N     Longitude: 090 22W

WEATHER
 
SELECT A DAY
Number of Records: 196,477;   Date Range: 1/1/95 - 8/28/14
 
SHARE

PRINT THIS DATA

[ ← Previous Day ]
WEATHER ALMANAC - JANUARY 6, 2013
[ Next Day → ]
[ °C ]   °F
Weather ElementAverageHighLow
Temperature31.4 °F39 °F (1:54 am)21 °F (10:54 pm)
Dewpoint21.7 °F30 °F (1:54 am)17.1 °F (10:54 pm)
Humidity68.4 %86 % (9:54 pm)46 % (2:54 pm)
Barometer30.28 in30.42 in (10:54 pm)30.11 in (1:54 am)
Wind Speed8.1 mph19.6 mph (6:54 am)
Wind Gust26.5 mph (6:54 am)
Weather ElementAverage
Visibility10 mi
Wind DirectionSSW (208.4 °)

Weather ElementTotal
Precipitation---
Heating Degree Days35 (Base 65)
Averaged from 25 records on January 6, 2013
WEATHER CONDITIONS BREAKOUT
WIND DIRECTION BREAKOUT
WEATHER BY HOUR - JANUARY 6, 2013
[ °C ]   °F
Local TimeTemperatureDewpointHumidityBarometerVisibilityWind DirectionWind SpeedGust SpeedPrecipitationEventsConditions
1:54 AM39.0 °F30.0 °F70 %30.11 in10.0 miWest (270°)9.2 mph20.7 mphScattered Clouds
2:54 AM36.0 °F28.9 °F76 %30.13 in10.0 miWest (260°)9.2 mphClear
3:54 AM34.0 °F28.0 °F79 %30.12 in10.0 miWest (270°)6.9 mphClear
4:54 AM34.0 °F27.0 °F75 %30.14 in10.0 miWest (270°)8.1 mphClear
5:32 AM33.8 °F26.6 °F75 %30.13 in10.0 miWest (280°)8.1 mphMostly Cloudy
5:54 AM34.0 °F26.1 °F73 %30.17 in10.0 miWNW (290°)12.7 mphOvercast
6:54 AM32.0 °F21.9 °F66 %30.20 in10.0 miWNW (290°)19.6 mph26.5 mphOvercast
7:54 AM32.0 °F21.0 °F64 %30.23 in10.0 miWNW (290°)11.5 mphOvercast
8:11 AM32.0 °F21.2 °F64 %30.21 in10.0 miWest (280°)11.5 mphOvercast
8:54 AM33.1 °F21.9 °F64 %30.26 in10.0 miWNW (290°)11.5 mphOvercast
9:54 AM33.1 °F21.9 °F64 %30.29 in10.0 miWNW (300°)18.4 mphOvercast
10:54 AM33.1 °F23.0 °F66 %30.31 in10.0 miWNW (290°)13.8 mph21.9 mphOvercast
11:54 AM34.0 °F21.9 °F61 %30.30 in10.0 miWNW (300°)13.8 mph25.3 mphMostly Cloudy
12:54 PM35.1 °F21.9 °F59 %30.29 in10.0 miWest (270°)10.4 mphClear
1:54 PM37.0 °F21.0 °F52 %30.31 in10.0 miNW (320°)11.5 mphClear
2:54 PM37.0 °F18.0 °F46 %30.32 in10.0 miWNW (300°)11.5 mph20.7 mphClear
3:54 PM37.0 °F18.0 °F46 %30.35 in10.0 miNNW (330°)9.2 mphClear
4:54 PM30.9 °F19.0 °F61 %30.37 in10.0 miNW (310°)5.8 mphClear
5:54 PM28.0 °F19.0 °F69 %30.38 in10.0 miCalmClear
6:54 PM27.0 °F19.0 °F72 %30.40 in10.0 miCalmClear
7:54 PM25.0 °F18.0 °F75 %30.40 in10.0 miCalmClear
8:54 PM24.1 °F18.0 °F77 %30.40 in10.0 miCalmClear
9:54 PM21.2 °F17.6 °F86 %30.37 in10.0 miCalmClear
10:54 PM21.0 °F17.1 °F85 %30.42 in10.0 miCalmClear
11:54 PM21.0 °F17.1 °F85 %30.42 in10.0 miCalmClear
Hourly data recorded from KSUS, located miles away from St. Louis, Missouri







STORIES FROM OUR PARTNERS